AFR60 LFBO-LFMN

Flight info

Callsign AFR60
Flight time 0h 45m
Altitude 33000
Route AMOLO DCT DEGOL DCT FJR DCT MTG/N0421F320 DCT ABLAK
Aircraft A320/M-SDE3FGHIRWY/LB1

Departure

Time 2026-05-05 15:24
Airport Toulouse-Blagnac Airport (LFBO)

Arrival

Time 2026-05-05 16:09
Airport Nice-Côte d'Azur Airport (LFMN)
Time Latitude Longitude Altitude Speed Heading
2026-05-05 14:46 43.62980 1.37319 494 ft 0 kts 44°
2026-05-05 15:11 43.62975 1.37313 485 ft 4 kts 44°
2026-05-05 15:11 43.62956 1.37287 494 ft 4 kts 43°
2026-05-05 15:11 43.62940 1.37267 494 ft 4 kts 46°
2026-05-05 15:11 43.62929 1.37238 494 ft 4 kts 99°
2026-05-05 15:12 43.62940 1.37210 494 ft 3 kts 142°
2026-05-05 15:12 43.62961 1.37188 494 ft 4 kts 142°
2026-05-05 15:12 43.62966 1.37183 494 ft 0 kts 142°
2026-05-05 15:14 43.62943 1.37207 485 ft 6 kts 144°
2026-05-05 15:15 43.62906 1.37203 494 ft 5 kts 208°
2026-05-05 15:15 43.62878 1.37158 490 ft 8 kts 232°
2026-05-05 15:15 43.62839 1.37089 484 ft 11 kts 229°
2026-05-05 15:15 43.62777 1.37075 491 ft 10 kts 144°
2026-05-05 15:16 43.62725 1.37127 488 ft 9 kts 143°
2026-05-05 15:16 43.62679 1.37174 489 ft 8 kts 143°
2026-05-05 15:16 43.62629 1.37224 489 ft 11 kts 143°
2026-05-05 15:16 43.62572 1.37285 489 ft 10 kts 143°
2026-05-05 15:17 43.62519 1.37340 490 ft 9 kts 143°
2026-05-05 15:17 43.62471 1.37390 489 ft 8 kts 143°
2026-05-05 15:17 43.62427 1.37436 494 ft 7 kts 143°
2026-05-05 15:17 43.62388 1.37477 488 ft 7 kts 143°
2026-05-05 15:18 43.62355 1.37512 489 ft 6 kts 143°
2026-05-05 15:18 43.62326 1.37542 487 ft 5 kts 143°
2026-05-05 15:18 43.62302 1.37567 488 ft 4 kts 143°
2026-05-05 15:18 43.62283 1.37587 491 ft 3 kts 143°
2026-05-05 15:19 43.62266 1.37605 488 ft 3 kts 143°
2026-05-05 15:19 43.62248 1.37624 494 ft 4 kts 143°
2026-05-05 15:19 43.62225 1.37647 492 ft 4 kts 143°
2026-05-05 15:19 43.62200 1.37672 488 ft 5 kts 143°
2026-05-05 15:20 43.62156 1.37716 489 ft 13 kts 144°
2026-05-05 15:20 43.62079 1.37795 490 ft 13 kts 142°
2026-05-05 15:20 43.62003 1.37875 490 ft 16 kts 142°
2026-05-05 15:20 43.61904 1.37979 494 ft 19 kts 143°
2026-05-05 15:21 43.61794 1.38091 492 ft 21 kts 144°
2026-05-05 15:21 43.61676 1.38166 485 ft 17 kts 208°
2026-05-05 15:21 43.61632 1.38123 485 ft 1 kts 227°
2026-05-05 15:21 43.61629 1.38117 494 ft 0 kts 227°
2026-05-05 15:22 43.61621 1.38105 481 ft 7 kts 229°
2026-05-05 15:22 43.61587 1.38037 494 ft 9 kts 256°
2026-05-05 15:23 43.61623 1.37960 487 ft 12 kts 326°
2026-05-05 15:23 43.61720 1.37863 488 ft 38 kts 323°
2026-05-05 15:23 43.62148 1.37408 489 ft 112 kts 324°
2026-05-05 15:23 43.62922 1.36592 697 ft 159 kts 325°
2026-05-05 15:24 43.63847 1.35654 1605 ft 172 kts 321°
2026-05-05 15:24 43.64845 1.34667 2505 ft 178 kts 322°
2026-05-05 15:24 43.65891 1.33676 3083 ft 192 kts 322°
2026-05-05 15:24 43.67054 1.32490 3419 ft 223 kts 320°
2026-05-05 15:25 43.68356 1.31064 3866 ft 250 kts 320°
2026-05-05 15:25 43.69942 1.30034 4811 ft 262 kts 351°
2026-05-05 15:25 43.71748 1.30563 5713 ft 278 kts 30°
2026-05-05 15:25 43.73061 1.32549 6617 ft 287 kts 62°
2026-05-05 15:26 43.73821 1.35113 7557 ft 290 kts 65°
2026-05-05 15:26 43.74691 1.37636 8548 ft 293 kts 64°
2026-05-05 15:26 43.75575 1.40181 9363 ft 302 kts 64°
2026-05-05 15:26 43.76496 1.42820 10252 ft 307 kts 65°
2026-05-05 15:27 43.77478 1.45552 10693 ft 330 kts 64°
2026-05-05 15:27 43.78549 1.48475 11063 ft 351 kts 63°
2026-05-05 15:27 43.79681 1.51498 11937 ft 354 kts 63°
2026-05-05 15:27 43.80828 1.54542 12717 ft 360 kts 63°
2026-05-05 15:28 43.81988 1.57637 13508 ft 363 kts 64°
2026-05-05 15:28 43.83060 1.60819 14268 ft 367 kts 68°
2026-05-05 15:28 43.84034 1.64097 14980 ft 369 kts 71°
2026-05-05 15:28 43.84874 1.67478 15693 ft 373 kts 75°
2026-05-05 15:29 43.85618 1.70933 16388 ft 376 kts 76°
2026-05-05 15:29 43.86324 1.74445 17080 ft 380 kts 77°
2026-05-05 15:29 43.87028 1.78001 17773 ft 385 kts 77°
2026-05-05 15:29 43.87753 1.81587 18413 ft 389 kts 76°
2026-05-05 15:30 43.88506 1.85207 19009 ft 392 kts 76°
2026-05-05 15:30 43.89281 1.88849 19612 ft 396 kts 76°
2026-05-05 15:30 43.90071 1.92518 20195 ft 399 kts 76°
2026-05-05 15:30 43.90871 1.96215 20800 ft 401 kts 76°
2026-05-05 15:31 43.91487 1.99985 21369 ft 401 kts 86°
2026-05-05 15:31 43.91614 2.03841 21929 ft 400 kts 96°
2026-05-05 15:31 43.91250 2.07650 22483 ft 399 kts 107°
2026-05-05 15:31 43.90613 2.11403 23023 ft 401 kts 107°
2026-05-05 15:32 43.89975 2.15188 23559 ft 404 kts 107°
2026-05-05 15:32 43.89339 2.19002 23995 ft 408 kts 107°
2026-05-05 15:32 43.88699 2.22851 24417 ft 412 kts 107°
2026-05-05 15:32 43.88052 2.26733 24821 ft 415 kts 107°
2026-05-05 15:33 43.87396 2.30652 25188 ft 420 kts 108°
2026-05-05 15:33 43.86728 2.34621 25526 ft 425 kts 108°
2026-05-05 15:33 43.86060 2.38576 25884 ft 430 kts 108°
2026-05-05 15:33 43.85364 2.42680 26271 ft 433 kts 108°
2026-05-05 15:34 43.84680 2.46704 26646 ft 437 kts 109°
2026-05-05 15:34 43.83982 2.50820 27028 ft 441 kts 109°
2026-05-05 15:34 43.83276 2.54968 27379 ft 445 kts 109°
2026-05-05 15:34 43.82564 2.59152 27759 ft 448 kts 109°
2026-05-05 15:35 43.81843 2.63366 28105 ft 452 kts 109°
2026-05-05 15:35 43.81101 2.67665 28448 ft 455 kts 110°
2026-05-05 15:35 43.80366 2.71892 28760 ft 460 kts 110°
2026-05-05 15:35 43.79614 2.76211 29059 ft 463 kts 111°
2026-05-05 15:36 43.78854 2.80565 29335 ft 468 kts 111°
2026-05-05 15:36 43.78089 2.84961 29675 ft 471 kts 111°
2026-05-05 15:36 43.77318 2.89386 29988 ft 474 kts 111°
2026-05-05 15:36 43.76540 2.93827 30241 ft 477 kts 111°
2026-05-05 15:37 43.75754 2.98304 30523 ft 479 kts 111°
2026-05-05 15:37 43.74966 3.02794 30781 ft 482 kts 111°
2026-05-05 15:37 43.74173 3.07303 30996 ft 484 kts 111°
2026-05-05 15:37 43.73366 3.11847 31183 ft 489 kts 111°
2026-05-05 15:38 43.72552 3.16427 31449 ft 492 kts 111°
2026-05-05 15:38 43.71739 3.21016 31820 ft 492 kts 111°
2026-05-05 15:38 43.70925 3.25602 32213 ft 492 kts 111°
2026-05-05 15:38 43.70107 3.30189 32594 ft 491 kts 112°
2026-05-05 15:39 43.69284 3.34779 32869 ft 492 kts 112°
2026-05-05 15:39 43.67672 3.43799 32916 ft 476 kts 112°
2026-05-05 15:40 43.66076 3.52631 32917 ft 472 kts 112°
2026-05-05 15:40 43.64470 3.61399 32918 ft 472 kts 112°
2026-05-05 15:41 43.62873 3.70124 32918 ft 472 kts 112°
2026-05-05 15:41 43.61261 3.78897 32917 ft 472 kts 112°
2026-05-05 15:42 43.59643 3.87675 32882 ft 472 kts 113°
2026-05-05 15:42 43.58020 3.96462 32892 ft 473 kts 113°
2026-05-05 15:43 43.56451 4.05292 32894 ft 475 kts 112°
2026-05-05 15:43 43.54988 4.14188 32889 ft 476 kts 111°
2026-05-05 15:44 43.53531 4.23080 32908 ft 474 kts 112°
2026-05-05 15:44 43.52032 4.31929 32923 ft 474 kts 112°
2026-05-05 15:45 43.50510 4.40743 32924 ft 473 kts 112°
2026-05-05 15:45 43.48990 4.49540 32898 ft 473 kts 112°
2026-05-05 15:45 43.48243 4.53888 32643 ft 473 kts 112°
2026-05-05 15:46 43.47475 4.58345 32344 ft 472 kts 112°
2026-05-05 15:46 43.46710 4.62749 32083 ft 473 kts 112°
2026-05-05 15:46 43.45953 4.67089 31830 ft 473 kts 112°
2026-05-05 15:46 43.45186 4.71484 31572 ft 472 kts 112°
2026-05-05 15:47 43.44421 4.75863 31315 ft 470 kts 112°
2026-05-05 15:47 43.43905 4.78815 31157 ft 469 kts 112°
2026-05-05 15:47 43.42901 4.84567 30413 ft 466 kts 112°
2026-05-05 15:47 43.42141 4.88891 29764 ft 464 kts 112°
2026-05-05 15:48 43.41381 4.93198 29125 ft 461 kts 111°
2026-05-05 15:48 43.40627 4.97455 28503 ft 457 kts 111°
2026-05-05 15:48 43.39880 5.01676 27921 ft 453 kts 110°
2026-05-05 15:48 43.39451 5.05967 27370 ft 460 kts 97°
2026-05-05 15:49 43.39680 5.10376 26794 ft 465 kts 83°
2026-05-05 15:49 43.40587 5.14622 26212 ft 467 kts 70°
2026-05-05 15:49 43.41913 5.18693 25636 ft 464 kts 68°
2026-05-05 15:49 43.43242 5.22726 25081 ft 461 kts 68°
2026-05-05 15:50 43.44556 5.26721 24513 ft 457 kts 68°
2026-05-05 15:50 43.45859 5.30699 23958 ft 454 kts 68°
2026-05-05 15:50 43.47151 5.34651 23314 ft 452 kts 68°
2026-05-05 15:50 43.48432 5.38580 22717 ft 447 kts 68°
2026-05-05 15:51 43.49700 5.42475 22114 ft 444 kts 68°
2026-05-05 15:51 43.50929 5.46351 21599 ft 439 kts 70°
2026-05-05 15:51 43.52062 5.50206 21266 ft 429 kts 71°
2026-05-05 15:51 43.53118 5.53993 20953 ft 419 kts 72°
2026-05-05 15:52 43.54129 5.57722 20593 ft 413 kts 72°
2026-05-05 15:52 43.55122 5.61408 20243 ft 407 kts 72°
2026-05-05 15:52 43.56104 5.65036 19899 ft 402 kts 73°
2026-05-05 15:52 43.56809 5.68721 19565 ft 394 kts 85°
2026-05-05 15:53 43.57110 5.72439 19228 ft 388 kts 89°
2026-05-05 15:53 43.57357 5.76137 18913 ft 386 kts 89°
2026-05-05 15:53 43.57605 5.79806 18592 ft 383 kts 89°
2026-05-05 15:53 43.57849 5.83452 18273 ft 381 kts 89°
2026-05-05 15:54 43.58091 5.87075 17926 ft 378 kts 89°
2026-05-05 15:54 43.58329 5.90674 17611 ft 377 kts 89°
2026-05-05 15:54 43.58565 5.94264 17296 ft 375 kts 89°
2026-05-05 15:54 43.58800 5.97827 16981 ft 372 kts 89°
2026-05-05 15:55 43.59030 6.01377 16670 ft 371 kts 89°
2026-05-05 15:55 43.59254 6.04911 16355 ft 369 kts 89°
2026-05-05 15:55 43.59380 6.08420 16046 ft 363 kts 97°
2026-05-05 15:55 43.59039 6.11783 15701 ft 356 kts 109°
2026-05-05 15:56 43.58252 6.14985 15247 ft 350 kts 116°
2026-05-05 15:56 43.57370 6.18159 14806 ft 349 kts 116°
2026-05-05 15:56 43.56519 6.21241 14389 ft 349 kts 115°
2026-05-05 15:56 43.55657 6.24377 13962 ft 350 kts 115°
2026-05-05 15:57 43.54797 6.27512 13507 ft 349 kts 115°
2026-05-05 15:57 43.53940 6.30626 13070 ft 346 kts 115°
2026-05-05 15:57 43.53086 6.33714 12648 ft 343 kts 115°
2026-05-05 15:57 43.52240 6.36770 12228 ft 340 kts 115°
2026-05-05 15:58 43.51407 6.39775 12034 ft 330 kts 115°
2026-05-05 15:58 43.50538 6.42635 11902 ft 316 kts 123°
2026-05-05 15:58 43.49293 6.45043 11692 ft 303 kts 137°
2026-05-05 15:58 43.47837 6.47141 11299 ft 303 kts 138°
2026-05-05 15:59 43.46375 6.49238 10896 ft 303 kts 137°
2026-05-05 15:59 43.44918 6.51328 10513 ft 303 kts 137°
2026-05-05 15:59 43.43466 6.53415 10113 ft 302 kts 138°
2026-05-05 15:59 43.42012 6.55505 9752 ft 301 kts 138°
2026-05-05 16:00 43.41057 6.56876 9560 ft 299 kts 138°
2026-05-05 16:00 43.39667 6.59030 9152 ft 302 kts 128°
2026-05-05 16:00 43.38743 6.61611 8822 ft 303 kts 109°
2026-05-05 16:00 43.38456 6.64429 8693 ft 295 kts 92°
2026-05-05 16:01 43.38459 6.67197 8564 ft 284 kts 92°
2026-05-05 16:01 43.38462 6.69879 8340 ft 278 kts 91°
2026-05-05 16:01 43.38461 6.72526 8030 ft 275 kts 92°
2026-05-05 16:01 43.38455 6.75147 7714 ft 273 kts 92°
2026-05-05 16:02 43.38452 6.77751 7404 ft 271 kts 92°
2026-05-05 16:02 43.38451 6.80334 7128 ft 270 kts 90°
2026-05-05 16:02 43.38751 6.82862 6740 ft 268 kts 72°
2026-05-05 16:02 43.39560 6.85173 6154 ft 273 kts 55°
2026-05-05 16:03 43.40850 6.87136 5600 ft 278 kts 43°
2026-05-05 16:03 43.42212 6.88941 5398 ft 266 kts 44°
2026-05-05 16:03 43.43515 6.90708 5324 ft 264 kts 44°
2026-05-05 16:03 43.44808 6.92509 5222 ft 263 kts 45°
2026-05-05 16:04 43.46099 6.94297 5051 ft 265 kts 45°
2026-05-05 16:04 43.47404 6.96083 4870 ft 265 kts 45°
2026-05-05 16:04 43.48721 6.97880 4534 ft 266 kts 45°
2026-05-05 16:04 43.50012 6.99638 4183 ft 255 kts 45°
2026-05-05 16:05 43.51243 7.01317 3852 ft 243 kts 45°
2026-05-05 16:05 43.52418 7.02920 3543 ft 232 kts 45°
2026-05-05 16:05 43.53542 7.04455 3237 ft 223 kts 45°
2026-05-05 16:05 43.54622 7.05932 2948 ft 215 kts 45°
2026-05-05 16:06 43.55662 7.07354 2667 ft 207 kts 46°
2026-05-05 16:06 43.56665 7.08725 2395 ft 201 kts 46°
2026-05-05 16:06 43.57638 7.10065 2101 ft 193 kts 46°
2026-05-05 16:06 43.58537 7.11327 2004 ft 173 kts 46°
2026-05-05 16:07 43.59331 7.12487 1746 ft 163 kts 48°
2026-05-05 16:07 43.60117 7.13604 1421 ft 160 kts 45°
2026-05-05 16:07 43.60930 7.14621 1139 ft 154 kts 46°
2026-05-05 16:07 43.61673 7.15549 1017 ft 142 kts 47°
2026-05-05 16:08 43.62372 7.16473 878 ft 137 kts 49°
2026-05-05 16:08 43.63033 7.17397 727 ft 133 kts 55°
2026-05-05 16:08 43.63685 7.18336 505 ft 135 kts 47°
2026-05-05 16:08 43.64358 7.19234 364 ft 134 kts 54°
2026-05-05 16:09 43.65011 7.20154 147 ft 133 kts 51°
2026-05-05 16:09 43.65654 7.21049 27 ft 130 kts 49°
2026-05-05 16:09 43.66148 7.21746 22 ft 62 kts 44°
2026-05-05 16:09 43.66261 7.21894 23 ft 2 kts 37°
2026-05-05 16:10 43.66408 7.22012 23 ft 32 kts 20°
2026-05-05 16:10 43.66535 7.22044 22 ft 6 kts 341°
2026-05-05 16:10 43.66558 7.22006 22 ft 5 kts 278°
2026-05-05 16:10 43.66551 7.21969 23 ft 3 kts 240°
2026-05-05 16:11 43.66537 7.21950 23 ft 3 kts 226°
2026-05-05 16:11 43.66427 7.21798 24 ft 5 kts 224°
2026-05-05 16:12 43.66403 7.21766 22 ft 5 kts 224°
2026-05-05 16:12 43.66328 7.21653 22 ft 11 kts 243°
2026-05-05 16:13 43.66353 7.21431 22 ft 7 kts 253°
2026-05-05 16:13 43.66357 7.21374 23 ft 5 kts 285°
2026-05-05 16:13 43.66365 7.21343 22 ft 2 kts 317°
2026-05-05 16:14 43.66388 7.21335 22 ft 3 kts 357°
2026-05-05 16:14 43.66426 7.21329 22 ft 0 kts 351°
2026-05-05 16:15 43.66425 7.21327 22 ft 0 kts 11°